NOAA 16 DEB, 41266

Orbit data source: Space-Track

NOAA 16 DEB, 41266 is space debris in SSO originally from a launch on Thu, 21 Sep 2000 UTC launched from the Air Force Western Test Range (AFWTR). Debris objects in space refer to the collection of defunct objects orbiting the Earth. Examples of debris include non-operational satellites, rocket bodies, and fragments generated from explosions, collisions, or faulty payload assembly.

Loading next visibility...
Identifier
41266, 2000-055FS
Orbit
SSO
Country
Flag of USUS
Related business
Manufacturer
Unknown
Mission
Spacecraft
Bus & Motor
Unknown
Mass
Unknown
Launch date (UTC)
2000-09-21 (25 years ago)
Launch vehicle
Unknown
Launch site
Air Force Western Test Range (AFWTR)
Object type
Payload
Rocket body
Debris
Shape & HBR
Unknown shape, 0.1 m
Radar Cross Section
Small (<0.1 m²)

Expand to show TLE details & history
Last TLE update: 8 hours ago

TLE from 8 hours ago
0 NOAA 16 DEB
1 41266U 00055FS  26071.99281370  .00003452  00000-0  14222-2 0  9991
2 41266  98.6513 139.0309 0001691 274.7736  85.3252 14.27509084526560
Epoch: 2026-03-12T23:49Z
TLE epoch observation values (Epoch: 2026-03-12T23:49:39.103Z)
Latitude
-0°
Longitude
-29.01677°
Altitude
802.897 km
Speed
7.452 km/s
True Right ascension
09h 16m 07s
True Declination
0° 00' 00"
Sunlit
Object was in full shadow at epoch
Visualization orbit readout
Latitude
Unknown
Longitude
Unknown
Altitude
Unknown
Speed
Unknown
Apparent Right ascension
Unknown
Apparent Declination
Unknown
Sunlit
N/A
Visualization observer readout
Local Sidereal Time
12:04:40
Azimuth
Unknown
Elevation
Unknown
Doppler factor
Unknown
Orbital elements
Apogee altitude
798.428 km
Perigee altitude
796.001 km
Semi-major axis
7,175.352 km
Eccentricity
0.00017
Inclination
98.6513°
RAAN
139.0309°
Arg. of periapsis
274.7736°
True anomaly
85.34451°
Mean anomaly
85.3252°
Eccentric anomaly
85.33486°
Mean motion
3.57091 °/min
Orbital period
100.81 mins
BSTAR
0.0014222
Loading maneuver chart data...
Computing Atmospheric mass density...

Documentation

Showing up to 5 results
|